Temperature
18 18 18 18 17 17 17 17 17 18 18 18 18 18 18 18 18 18 18 18 18 18 18 18 18 18 18 18 18 18 18 18 18 18 18 18 18 18 18 18 18 18 18
18 18 18 18 17 17 17 17 17 17 18 17 17 17 18 18 18 18 18 18 18 18 18 18 18 18 18 18 18 18 18 18 18 18 18 18 18 18 18 18 18 18 18
18 18 18 18 18 17 17 17 17 17 17 17 17 17 17 17 17 17 17 17 18 18 18 18 18 18 18 18 18 18 18 18 18 18 18 18 18 18 18 18 18 18 18
18 17 18 18 18 17 17 17 17 17 17 17 17 17 17 17 17 17 17 17 17 17 17 17 17 17 18 18 18 18 18 18 18 17 17 17 18 18 18 18 18 18 18
18 17 18 18 17 17 17 17 17 17 17 17 17 17 17 17 17 17 17 17 17 17 17 17 17 17 17 17 17 17 17 17 17 17 17 17 17 17 17 17 17 17 18
18 17 18 18 17 17 17 17 17 17 17 17 17 17 17 17 17 17 17 17 17 17 17 17 17 17 17 17 17 17 17 17 17 17 17 17 17 17 17 17 17 17 17
18 18 18 17 17 17 17 17 17 17 17 17 17 17 17 17 17 17 17 17 17 17 17 17 17 17 17 17 17 17 17 17 17 17 17 17 17 17 17 17 17 17 17
18 18 18 17 17 17 17 17 17 17 17 17 17 17 17 17 17 17 17 17 17 17 17 17 17 17 17 17 17 17 16 16 16 16 17 17 17 17 17 17 17 17 17
18 18 18 18 17 17 17 17 17 17 17 17 17 17 17 17 17 17 17 17 17 17 17 16 17 17 17 17 16 16 16 16 16 16 16 16 17 17 17 17 17 17 17
18 18 18 18 17 17 17 17 17 17 17 17 17 17 16 16 16 16 16 16 16 16 16 16 16 16 16 16 16 16 16 16 16 16 16 16 16 16 16 17 16 16 17
19 19 18 18 17 17 17 17 17 17 17 17 16 16 16 16 16 16 16 16 16 16 16 16 16 16 16 16 16 16 16 16 16 16 16 16 16 16 16 16 16 16 16
19 19 18 18 18 17 17 17 17 16 17 16 16 16 16 16 16 16 16 16 16 16 16 15 16 16 16 16 16 16 16 16 15 16 15 16 16 16 16 16 16 16 16
19 19 18 18 18 18 17 17 17 17 16 16 16 16 16 16 16 16 16 16 16 15 15 15 15 16 16 16 15 15 15 15 15 15 15 15 15 15 15 15 15 15 15
19 19 19 18 18 18 17 17 17 17 16 16 16 16 16 16 16 16 16 16 15 15 15 15 15 15 15 15 15 15 15 15 15 15 15 15 15 15 15 15 15 15 15
19 19 18 18 18 18 17 17 17 17 17 16 16 16 16 16 16 16 16 16 15 15 15 15 15 15 15 15 15 15 15 15 15 15 15 15 15 15 15 15 15 15 15
19 18 18 18 18 18 17 17 17 17 17 16 16 16 16 16 16 16 16 16 15 15 15 15 15 15 15 15 15 15 15 15 15 15 15 15 15 15 15 15 15 15 15
19 18 18 18 18 18 17 17 17 17 16 16 16 16 16 16 16 16 16 16 15 15 15 15 15 15 15 15 15 15 15 15 15 15 15 15 15 15 15 15 15 15 15
19 18 18 18 18 17 17 17 17 16 16 16 16 16 16 16 16 16 16 15 15 15 15 15 15 15 15 15 15 15 15 15 14 14 14 14 14 14 14 14 15 15 15
18 18 18 18 17 17 17 17 16 16 16 16 16 16 16 16 16 16 15 15 15 15 15 15 15 15 15 15 15 14 14 15 15 14 14 14 14 14 14 14 14 15 15
18 18 18 17 17 17 17 17 16 16 16 16 16 16 16 16 16 15 15 15 15 15 15 15 15 15 15 15 15 15 15 15 15 14 14 14 14 14 14 14 14 14 14
18 18 17 17 17 17 17 16 16 16 16 16 16 16 16 15 15 15 15 15 15 15 15 15 15 15 15 15 15 15 14 14 14 14 14 14 14 14 14 14 14 14 14
18 17 17 17 17 17 16 16 16 16 15 15 15 15 16 15 15 15 15 15 15 15 15 15 14 14 15 15 15 15 14 14 14 14 14 14 14 14 14 14 13 14 14
17 17 17 17 17 16 16 16 16 16 15 15 15 15 15 15 15 15 15 15 15 15 15 14 14 14 14 15 15 15 15 14 14 14 14 14 14 14 14 13 13 13 13
17 17 17 17 16 16 16 16 16 15 15 15 15 15 15 15 15 15 15 15 15 15 15 14 14 14 14 14 14 15 15 15 14 14 14 14 14 14 14 13 13 13 13
17 17 17 17 16 16 16 16 15 15 15 15 15 15 15 15 15 15 15 15 15 15 15 14 14 14 14 14 14 14 15 15 15 14 14 14 14 13 13 13 13 13 13
17 17 17 16 16 16 16 16 15 15 15 15 15 15 15 15 15 15 15 15 14 14 14 14 14 14 14 14 14 14 14 14 14 14 14 14 13 13 13 13 13 13 13
Wind_Speed
7 10 12 12 12 12 12 11 12 12 11 11 12 11 11 11 11 11 11 10 11 11 12 12 12 12 12 12 12 11 11 10 10 10 10 10 9 9 10 10 10 9 11
8 12 12 11 12 12 12 12 11 11 11 11 11 12 12 12 12 11 12 11 11 12 13 13 12 12 12 12 12 11 10 10 10 10 10 9 9 9 10 10 10 9 11
9 11 12 11 11 11 12 11 11 11 11 11 12 12 13 12 12 12 13 14 13 13 13 13 13 13 12 12 12 11 10 10 9 9 9 7 9 10 10 10 11 11 11
10 11 11 10 11 11 11 11 11 11 11 11 12 12 12 12 12 13 14 15 15 14 14 13 14 13 13 13 12 12 12 11 11 11 9 9 9 11 11 12 12 12 11
10 12 11 11 11 11 11 11 11 11 12 12 12 12 12 12 12 13 14 14 14 13 13 13 14 14 13 13 13 12 12 12 13 12 11 12 11 13 14 13 12 12 12
9 12 12 11 11 11 12 12 12 12 12 12 12 12 12 12 12 13 14 14 14 14 13 14 13 13 13 13 12 12 12 13 13 12 12 12 12 14 15 14 13 13 12
8 11 12 11 11 11 12 12 12 11 11 12 12 12 12 12 13 13 14 14 14 14 13 13 14 14 13 13 12 11 11 13 12 12 12 12 13 15 15 14 14 14 13
8 9 12 12 11 11 11 11 10 10 10 11 11 12 12 13 13 14 14 14 14 14 14 14 14 14 13 13 12 12 12 12 13 12 12 12 14 14 14 14 14 13 13
7 7 9 11 12 11 10 9 9 9 9 10 10 11 12 13 13 13 13 13 13 13 13 13 13 13 12 12 12 12 13 14 11 10 11 12 15 15 14 14 13 13 13
6 6 7 8 10 10 10 9 8 8 7 8 9 9 10 12 12 12 12 13 13 13 13 12 12 11 11 11 11 11 12 12 11 11 11 12 15 15 15 14 13 13 13
5 5 6 6 7 8 9 9 8 6 5 6 7 7 7 8 9 10 13 13 13 13 12 10 9 9 10 10 10 10 10 10 10 11 11 13 14 14 14 13 13 12 12
4 5 5 5 5 6 6 7 5 5 5 4 5 6 6 7 9 10 12 12 11 10 9 8 9 8 7 6 8 8 8 10 9 10 11 14 14 13 13 13 12 11 11
5 5 5 4 5 6 4 4 4 4 3 4 4 6 7 7 7 7 7 7 7 6 5 5 6 6 7 7 6 8 9 10 10 11 12 15 14 13 12 12 11 11 11
5 5 4 4 4 5 5 3 3 3 3 3 4 6 5 4 4 4 3 5 5 4 4 4 4 6 7 8 8 9 10 9 10 10 12 14 13 13 12 12 11 11 10
6 5 4 4 5 5 4 2 4 3 3 4 3 4 6 4 3 4 4 4 5 5 4 4 6 6 7 7 8 8 8 9 10 11 11 12 12 13 12 11 11 10 10
6 6 3 4 5 5 4 3 3 3 3 4 3 4 6 5 4 3 4 4 4 5 5 6 6 5 5 6 6 7 7 8 9 10 10 11 12 12 12 11 10 10 10
5 6 4 4 5 4 5 4 4 3 4 3 3 5 6 6 5 4 4 3 4 6 6 6 6 5 4 5 5 6 5 6 7 8 9 9 9 11 11 11 10 9 8
5 5 5 4 4 4 4 4 3 4 4 3 4 5 5 6 7 5 4 3 5 6 5 3 3 4 4 4 3 3 3 3 4 6 8 8 8 8 9 10 9 9 8
5 5 5 4 4 4 4 4 4 4 4 4 4 4 5 6 7 5 3 3 5 3 2 3 4 3 3 3 2 2 2 2 3 4 5 7 8 8 8 8 9 8 7
5 5 4 4 4 4 4 3 3 3 3 3 3 3 5 5 6 4 3 4 4 3 3 3 3 3 2 2 2 2 2 2 2 3 3 5 5 6 7 7 7 7 7
4 4 4 3 4 4 3 2 2 2 2 2 2 4 5 4 4 3 3 3 3 2 2 2 2 2 1 2 2 2 2 2 3 2 3 3 3 4 7 7 6 6 5
4 3 3 3 3 4 3 2 2 2 2 2 2 3 4 4 3 3 2 2 2 2 2 2 1 1 0 0 1 1 1 1 2 2 1 2 2 3 3 5 6 7 7
4 3 3 3 3 3 3 3 2 2 2 2 1 1 2 3 3 2 2 2 2 2 2 1 1 1 1 1 1 1 1 1 0 1 1 2 2 2 2 4 5 7 8
3 3 3 3 3 3 4 3 3 2 2 1 1 1 1 1 2 2 2 2 2 2 2 1 1 1 1 1 1 1 1 2 2 0 1 1 2 2 2 3 4 7 8
4 2 2 3 2 2 3 4 3 2 1 1 1 2 1 1 1 1 1 1 1 1 2 1 1 1 1 0 0 1 1 1 1 2 1 0 1 1 2 3 4 6 8
4 3 2 3 2 2 2 3 3 2 1 2 2 1 0 0 0 1 1 1 0 1 1 1 1 1 0 1 1 0 0 0 0 1 1 1 1 1 2 2 3 5 7
Wind_Direction
77 79 60 52 46 46 47 51 54 55 57 58 57 54 54 57 57 57 58 63 68 70 71 74 76 77 78 81 83 85 85 87 89 90 93 93 92 91 92 94 96 94 97
86 85 66 55 50 49 49 54 56 57 58 59 59 57 58 61 60 59 58 64 75 76 75 76 77 76 77 80 80 81 83 87 88 89 91 91 94 94 94 92 92 95 96
89 86 71 57 53 52 52 57 59 59 61 62 62 61 63 63 62 61 60 65 76 78 78 78 77 76 76 78 78 77 77 81 81 80 81 92 94 92 95 95 92 97 97
89 85 75 65 59 57 57 57 61 62 63 64 64 64 67 67 67 66 65 68 74 77 78 78 78 77 77 77 76 75 75 73 70 68 71 80 88 92 93 94 92 93 94
90 91 84 73 67 64 62 61 64 66 66 66 66 66 69 70 70 70 71 72 75 77 79 79 77 77 75 75 74 73 73 72 69 65 71 77 80 88 89 89 90 90 89
96 98 95 85 76 70 66 66 68 68 68 67 67 67 69 71 72 71 72 71 73 76 78 79 79 78 76 75 73 72 72 71 69 67 69 75 80 85 85 85 84 86 87
93 101 104 98 88 80 74 71 70 70 71 71 70 70 71 71 73 75 74 72 73 76 77 78 80 81 79 75 73 71 76 76 77 73 72 75 83 85 84 84 83 83 82
99 105 114 115 106 95 86 79 75 74 74 77 76 75 76 76 76 77 77 78 78 78 79 79 77 79 78 76 73 69 68 73 77 77 73 75 84 85 85 84 84 82 80
106 112 126 132 125 113 102 94 88 83 81 84 88 84 83 81 79 77 78 81 81 82 83 84 82 80 78 76 74 72 71 72 68 71 75 75 83 83 83 84 83 82 80
116 118 117 126 128 129 123 114 108 101 96 96 100 96 94 90 85 84 82 81 82 82 84 84 86 87 87 84 80 74 74 72 71 73 75 80 83 82 81 82 82 81 79
96 101 104 111 115 121 126 125 132 126 124 122 122 118 106 99 97 91 91 89 86 83 83 83 84 96 98 90 83 74 73 77 77 77 76 83 84 83 82 82 81 81 80
88 86 92 96 105 104 102 118 121 114 122 124 120 124 113 103 100 100 102 100 97 91 85 79 80 97 99 94 88 82 79 78 78 79 82 87 84 85 84 83 82 81 81
96 84 86 86 93 100 98 105 100 103 104 90 97 105 101 107 111 112 116 114 112 106 97 84 80 92 94 89 83 82 81 75 74 76 81 83 83 85 88 86 83 81 82
100 86 82 88 86 90 91 95 96 97 96 81 76 90 101 95 98 103 96 114 109 94 82 84 74 74 70 77 80 78 79 81 82 82 83 83 82 82 86 88 84 81 80
112 97 76 76 80 87 87 77 93 89 92 93 77 85 93 95 95 97 93 89 90 86 75 65 67 62 57 54 65 75 80 83 87 85 84 83 81 82 82 87 87 83 82
109 108 88 79 77 77 93 87 77 90 96 95 81 81 85 92 93 88 81 77 80 81 78 76 75 69 64 61 57 61 74 88 92 95 94 87 82 81 80 83 83 82 81
114 113 103 84 87 79 81 76 79 78 83 81 73 72 82 94 95 83 77 75 79 80 78 78 75 73 75 70 61 60 63 78 96 101 102 98 91 83 80 78 76 80 82
107 108 111 100 94 88 77 72 78 77 75 72 63 60 66 80 91 83 75 74 83 79 78 74 75 66 67 65 58 58 61 66 94 109 109 106 104 97 90 83 76 74 82
96 103 108 103 99 91 86 81 78 82 79 79 67 56 59 59 79 88 82 87 88 80 73 79 80 82 82 81 84 73 57 49 56 86 97 109 111 114 109 98 84 76 78
89 94 89 99 99 90 78 75 71 73 76 79 82 78 71 60 72 85 94 89 90 77 68 69 79 87 103 113 98 83 87 84 58 47 70 86 104 118 117 119 108 87 80
90 89 90 81 95 93 82 79 80 75 71 69 57 69 74 68 73 79 82 84 86 98 111 104 98 102 130 139 100 59 39 76 94 63 63 80 81 101 116 119 120 111 95
103 94 100 98 90 102 104 103 111 115 109 96 56 62 64 67 75 81 83 91 86 88 87 92 102 93 313 255 129 131 102 24 30 62 71 81 75 67 86 111 117 112 104
124 118 108 106 103 104 112 101 89 85 93 92 97 74 56 65 79 91 93 99 121 121 125 145 148 139 252 308 54 124 143 157 71 358 55 89 93 75 63 76 91 104 107
126 121 121 115 113 118 115 107 108 113 117 132 128 124 111 87 82 91 101 108 104 103 129 175 140 145 138 301 335 340 92 133 139 118 347 59 95 98 97 85 77 90 100
121 111 111 114 103 108 125 121 127 112 129 111 94 120 135 128 96 94 100 116 109 125 153 137 98 102 146 183 270 329 6 355 169 145 181 212 67 92 105 102 95 89 96
127 130 121 123 123 110 120 135 136 135 142 115 104 106 131 102 110 134 155 178 130 106 109 105 115 142 213 250 260 238 172 253 288 144 176 180 138 130 104 99 106 108 109
Height
1508 1505 1504 1503 1502 1501 1501 1500 1500 1499 1499 1498 1498 1497 1496 1496 1496 1495 1494 1493 1493 1494 1495 1496 1496 1497 1498 1498 1500 1501 1502 1503 1505 1506 1507 1508 1509 1510 1511 1512 1513 1514 1515
1508 1506 1505 1504 1503 1503 1502 1502 1501 1501 1500 1500 1499 1498 1497 1497 1497 1496 1493 1491 1492 1495 1496 1497 1498 1499 1500 1500 1501 1502 1504 1504 1505 1506 1507 1508 1510 1511 1512 1513 1514 1515 1516
1509 1507 1506 1505 1504 1504 1503 1503 1502 1502 1502 1501 1501 1500 1499 1499 1498 1497 1495 1491 1492 1496 1498 1499 1500 1501 1501 1502 1503 1504 1505 1506 1507 1507 1506 1507 1510 1512 1513 1514 1515 1516 1517
1510 1508 1507 1507 1506 1505 1505 1504 1504 1503 1503 1503 1502 1502 1501 1501 1500 1499 1498 1496 1497 1498 1500 1501 1502 1503 1503 1504 1505 1506 1507 1507 1508 1507 1506 1507 1510 1512 1514 1515 1516 1517 1518
1511 1509 1509 1508 1507 1507 1506 1506 1505 1505 1505 1504 1504 1503 1503 1503 1502 1502 1501 1501 1501 1502 1502 1503 1504 1505 1505 1506 1507 1508 1508 1509 1509 1509 1508 1509 1511 1514 1515 1516 1518 1519 1519
1512 1511 1510 1509 1509 1508 1508 1507 1507 1507 1506 1506 1506 1505 1505 1504 1504 1504 1504 1503 1504 1504 1505 1505 1506 1506 1507 1508 1509 1510 1510 1511 1511 1511 1511 1512 1514 1516 1517 1518 1519 1520 1521
1513 1512 1511 1511 1510 1510 1509 1509 1509 1508 1508 1508 1508 1507 1507 1506 1506 1506 1506 1506 1506 1506 1506 1507 1507 1508 1509 1510 1511 1511 1512 1513 1513 1514 1514 1515 1516 1517 1518 1519 1520 1521 1522
1514 1513 1513 1512 1512 1511 1511 1511 1511 1510 1510 1510 1509 1509 1509 1508 1509 1508 1508 1508 1508 1508 1508 1508 1508 1509 1510 1511 1512 1513 1514 1515 1515 1516 1517 1518 1519 1519 1520 1521 1522 1522 1523
1515 1515 1514 1514 1513 1513 1513 1513 1513 1512 1512 1512 1512 1511 1511 1511 1511 1511 1510 1510 1510 1510 1509 1509 1510 1511 1512 1513 1514 1514 1515 1516 1517 1518 1519 1520 1520 1521 1521 1522 1523 1523 1524
1516 1516 1516 1516 1515 1515 1515 1515 1515 1514 1514 1514 1514 1514 1513 1513 1513 1513 1513 1512 1512 1512 1512 1511 1510 1511 1513 1514 1515 1516 1517 1518 1519 1520 1520 1521 1522 1522 1523 1523 1524 1524 1525
1517 1517 1518 1518 1517 1517 1517 1517 1516 1516 1516 1516 1516 1516 1516 1515 1515 1515 1515 1515 1514 1514 1513 1512 1509 1509 1513 1516 1518 1519 1520 1520 1521 1521 1522 1523 1523 1524 1524 1524 1525 1525 1526
1518 1519 1519 1519 1519 1519 1519 1519 1518 1518 1518 1518 1518 1519 1518 1518 1518 1517 1517 1517 1517 1517 1516 1513 1509 1509 1514 1518 1520 1521 1521 1522 1523 1523 1524 1525 1525 1525 1525 1526 1526 1527 1527
1519 1519 1520 1520 1520 1520 1520 1520 1520 1520 1520 1520 1520 1520 1520 1520 1520 1519 1519 1519 1519 1519 1518 1517 1515 1516 1518 1520 1522 1522 1523 1524 1525 1525 1526 1526 1526 1526 1527 1527 1527 1528 1528
1519 1520 1520 1520 1520 1521 1521 1521 1521 1521 1521 1522 1522 1522 1522 1522 1522 1522 1522 1522 1522 1522 1521 1521 1520 1521 1522 1523 1524 1524 1525 1526 1526 1527 1527 1527 1528 1528 1528 1528 1528 1529 1529
1519 1520 1521 1521 1521 1521 1522 1522 1522 1523 1523 1523 1523 1523 1523 1523 1524 1524 1524 1524 1524 1524 1524 1524 1524 1525 1525 1526 1526 1527 1527 1528 1528 1528 1529 1529 1529 1529 1529 1529 1529 1530 1530
1519 1520 1521 1522 1522 1522 1522 1523 1523 1524 1524 1524 1524 1525 1525 1525 1525 1526 1525 1526 1526 1526 1526 1526 1527 1527 1527 1528 1528 1529 1529 1530 1530 1530 1530 1530 1531 1531 1530 1531 1531 1531 1531
1520 1520 1521 1522 1523 1523 1523 1523 1524 1524 1525 1525 1525 1526 1526 1526 1526 1527 1527 1527 1528 1528 1528 1528 1528 1529 1529 1529 1530 1530 1531 1531 1532 1532 1532 1532 1532 1532 1532 1532 1532 1532 1531
1520 1521 1521 1522 1523 1523 1524 1524 1524 1525 1525 1526 1526 1527 1527 1527 1527 1528 1528 1528 1529 1529 1530 1530 1530 1530 1530 1531 1531 1532 1532 1533 1533 1533 1533 1533 1533 1533 1533 1533 1533 1532 1532
1520 1521 1521 1522 1523 1524 1524 1524 1525 1525 1526 1526 1527 1527 1527 1528 1528 1529 1529 1529 1530 1530 1531 1531 1531 1531 1532 1532 1533 1533 1534 1534 1534 1535 1534 1534 1534 1534 1534 1534 1534 1533 1533
1520 1520 1521 1522 1523 1523 1524 1524 1525 1526 1526 1527 1527 1528 1528 1528 1529 1529 1530 1530 1530 1531 1531 1532 1532 1532 1533 1534 1534 1534 1534 1535 1535 1535 1535 1536 1536 1535 1535 1534 1534 1533 1533
1519 1520 1521 1521 1522 1523 1524 1524 1525 1526 1527 1527 1528 1528 1528 1529 1530 1530 1530 1530 1531 1531 1532 1533 1533 1533 1534 1534 1535 1535 1536 1536 1535 1536 1536 1536 1536 1536 1535 1535 1534 1534 1533
1519 1520 1521 1521 1522 1523 1523 1524 1525 1526 1527 1527 1528 1528 1529 1529 1529 1530 1530 1531 1531 1532 1532 1533 1533 1534 1534 1535 1535 1535 1536 1537 1536 1536 1536 1536 1536 1536 1536 1536 1535 1534 1534
1519 1520 1520 1521 1522 1522 1523 1524 1525 1526 1526 1527 1527 1528 1528 1529 1529 1530 1530 1531 1531 1531 1532 1533 1533 1533 1534 1535 1535 1536 1536 1536 1536 1537 1537 1537 1536 1536 1536 1536 1536 1535 1535
1518 1519 1520 1521 1521 1522 1522 1523 1524 1525 1526 1527 1527 1528 1528 1529 1529 1530 1530 1531 1531 1531 1532 1532 1533 1533 1534 1534 1535 1535 1536 1536 1536 1537 1537 1537 1537 1536 1536 1536 1536 1536 1535
1517 1518 1519 1520 1520 1521 1522 1523 1523 1524 1525 1526 1527 1527 1528 1528 1528 1529 1529 1530 1530 1531 1531 1532 1532 1533 1533 1533 1534 1534 1535 1535 1535 1536 1536 1537 1537 1536 1536 1536 1536 1536 1535
1516 1516 1517 1518 1519 1520 1521 1522 1522 1523 1524 1525 1526 1526 1527 1527 1528 1528 1529 1529 1530 1530 1530 1531 1531 1532 1532 1533 1533 1533 1534 1534 1534 1534 1534 1535 1536 1536 1536 1536 1536 1536 1535